When you browse on this site, cookies collect data to enhance your experience and personalize the content and advertising you see.
Visit our Privacy Policy to learn more. By continuing to use the site, you agree to this use of cookies and data.
  • Em Portugal
  • Lista de países
  • Para 7 dias
  • Temperatura da água
  • Mapas de satélite
  • Mapa do tempo
  • Widgets de tempo
  • user-avatar
    Iniciar Sessão

    Previsão horária em Oita

    Hoje, 11 Dezembro, Terça-feira

    Tempo Temperatura Precipitação Vento Pressão Humidade
    00:00 +4°C° 0 mm 3 m/s 765 mmHg 80%
    01:00 +5°C° 0 mm 3 m/s 765 mmHg 81%
    02:00 +6°C° 0 mm 2 m/s 764 mmHg 82%
    03:00 +6°C° 0 mm 2 m/s 764 mmHg 84%
    04:00 +6°C° 0 mm 2 m/s 764 mmHg 85%
    05:00 +7°C° 0 mm 2 m/s 764 mmHg 85%
    06:00 +7°C° 0 mm 2 m/s 763 mmHg 85%
    07:00 +8°C° 0.1 mm 2 m/s 763 mmHg 84%
    08:00 +8°C° 0.1 mm 2 m/s 763 mmHg 83%
    09:00 +9°C° 0.1 mm 2 m/s 763 mmHg 82%
    10:00 +9°C° 0.7 mm 2 m/s 762 mmHg 85%
    11:00 +9°C° 0.7 mm 2 m/s 761 mmHg 87%
    12:00 +9°C° 0.7 mm 2 m/s 761 mmHg 90%
    13:00 +9°C° 2.5 mm 2 m/s 760 mmHg 92%
    14:00 +9°C° 2.5 mm 3 m/s 760 mmHg 93%
    15:00 +8°C° 2.5 mm 3 m/s 760 mmHg 95%
    16:00 +8°C° 2.6 mm 3 m/s 759 mmHg 95%
    17:00 +8°C° 2.6 mm 3 m/s 759 mmHg 95%
    18:00 +9°C° 2.6 mm 3 m/s 759 mmHg 95%
    19:00 +9°C° 0.8 mm 3 m/s 759 mmHg 95%
    20:00 +9°C° 0.8 mm 3 m/s 758 mmHg 96%
    21:00 +9°C° 0.8 mm 3 m/s 758 mmHg 96%
    22:00 +9°C° 0.3 mm 3 m/s 758 mmHg 96%
    23:00 +9°C° 0.3 mm 3 m/s 758 mmHg 96%

    Amanhã, 12 Dezembro, Quarta-feira

    Tempo Temperatura Precipitação Vento Pressão Humidade
    00:00 +9°C° 0.3 mm 3 m/s 758 mmHg 96%
    01:00 +9°C° 0 mm 3 m/s 757 mmHg 95%
    02:00 +8°C° 0 mm 4 m/s 757 mmHg 94%
    03:00 +8°C° 0 mm 5 m/s 757 mmHg 93%
    04:00 +8°C° 0.1 mm 5 m/s 757 mmHg 93%
    05:00 +8°C° 0.1 mm 5 m/s 758 mmHg 92%
    06:00 +8°C° 0.1 mm 5 m/s 758 mmHg 92%
    07:00 +8°C° 0.1 mm 6 m/s 758 mmHg 90%
    08:00 +8°C° 0.1 mm 6 m/s 759 mmHg 88%
    09:00 +8°C° 0.1 mm 7 m/s 759 mmHg 86%
    10:00 +9°C° 0.1 mm 7 m/s 759 mmHg 81%
    11:00 +9°C° 0.1 mm 7 m/s 759 mmHg 76%
    12:00 +9°C° 0.1 mm 7 m/s 759 mmHg 71%
    13:00 +9°C° 0 mm 7 m/s 759 mmHg 67%
    14:00 +9°C° 0 mm 7 m/s 759 mmHg 63%
    15:00 +9°C° 0 mm 7 m/s 759 mmHg 60%
    16:00 +7°C° 0 mm 6 m/s 760 mmHg 63%
    17:00 +6°C° 0 mm 5 m/s 760 mmHg 67%
    18:00 +5°C° 0 mm 5 m/s 761 mmHg 71%
    19:00 +3°C° 0 mm 5 m/s 761 mmHg 71%
    20:00 +4°C° 0 mm 4 m/s 762 mmHg 72%
    21:00 +4°C° 0 mm 4 m/s 762 mmHg 73%
    22:00 +3°C° 0 mm 4 m/s 762 mmHg 73%
    23:00 +3°C° 0 mm 4 m/s 762 mmHg 74%

    Depois de amanhã, 13 Dezembro, Quinta-feira

    Tempo Temperatura Precipitação Vento Pressão Humidade
    00:00 +3°C° 0 mm 4 m/s 763 mmHg 74%
    01:00 +3°C° 0 mm 4 m/s 762 mmHg 74%
    02:00 +3°C° 0 mm 4 m/s 762 mmHg 74%
    03:00 +3°C° 0 mm 4 m/s 762 mmHg 73%
    04:00 +3°C° 0 mm 4 m/s 762 mmHg 72%
    05:00 +3°C° 0 mm 4 m/s 762 mmHg 71%
    06:00 +3°C° 0 mm 4 m/s 763 mmHg 70%
    07:00 +4°C° 0 mm 4 m/s 763 mmHg 66%
    08:00 +5°C° 0 mm 4 m/s 763 mmHg 63%
    09:00 +6°C° 0 mm 4 m/s 764 mmHg 59%
    10:00 +7°C° 0 mm 4 m/s 764 mmHg 56%
    11:00 +8°C° 0 mm 5 m/s 764 mmHg 53%
    12:00 +9°C° 0 mm 5 m/s 764 mmHg 50%
    13:00 +9°C° 0 mm 5 m/s 763 mmHg 51%
    14:00 +9°C° 0 mm 5 m/s 763 mmHg 52%
    15:00 +8°C° 0 mm 6 m/s 763 mmHg 52%
    16:00 +7°C° 0 mm 5 m/s 763 mmHg 58%
    17:00 +6°C° 0 mm 5 m/s 763 mmHg 64%
    18:00 +4°C° 0 mm 4 m/s 764 mmHg 70%
    19:00 +4°C° 0 mm 4 m/s 764 mmHg 71%
    20:00 +4°C° 0 mm 4 m/s 764 mmHg 72%
    21:00 +4°C° 0 mm 4 m/s 765 mmHg 73%
    22:00 +4°C° 0 mm 4 m/s 765 mmHg 73%
    23:00 +4°C° 0 mm 4 m/s 765 mmHg 74%

    14 Dezembro, Sexta-feira

    Tempo Temperatura Precipitação Vento Pressão Humidade
    00:00 +4°C° 0 mm 4 m/s 765 mmHg 75%
    01:00 +4°C° 0 mm 4 m/s 765 mmHg 77%
    02:00 +4°C° 0 mm 4 m/s 764 mmHg 79%
    03:00 +4°C° 0 mm 4 m/s 764 mmHg 81%
    04:00 +4°C° 0 mm 4 m/s 765 mmHg 80%
    05:00 +4°C° 0 mm 4 m/s 765 mmHg 79%
    06:00 +4°C° 0 mm 4 m/s 765 mmHg 78%
    07:00 +5°C° 0 mm 4 m/s 765 mmHg 73%
    08:00 +5°C° 0 mm 4 m/s 766 mmHg 69%
    09:00 +7°C° 0 mm 3 m/s 766 mmHg 65%
    10:00 +7°C° 0 mm 4 m/s 766 mmHg 60%
    11:00 +8°C° 0 mm 4 m/s 765 mmHg 55%
    12:00 +10°C° 0 mm 4 m/s 765 mmHg 49%
    13:00 +10°C° 0 mm 4 m/s 765 mmHg 50%
    14:00 +10°C° 0 mm 4 m/s 764 mmHg 52%
    15:00 +10°C° 0 mm 4 m/s 764 mmHg 53%
    16:00 +8°C° 0 mm 4 m/s 764 mmHg 60%
    17:00 +7°C° 0 mm 3 m/s 765 mmHg 66%
    18:00 +5°C° 0 mm 3 m/s 765 mmHg 73%
    19:00 +4°C° 0 mm 3 m/s 765 mmHg 74%
    20:00 +4°C° 0 mm 3 m/s 766 mmHg 76%
    21:00 +4°C° 0 mm 3 m/s 766 mmHg 77%
    22:00 +5°C° 0 mm 2 m/s 766 mmHg 78%
    23:00 +4°C° 0 mm 2 m/s 766 mmHg 79%

    15 Dezembro, Sábado

    Tempo Temperatura Precipitação Vento Pressão Humidade
    00:00 +4°C° 0 mm 2 m/s 766 mmHg 81%
    01:00 +4°C° 0 mm 2 m/s 766 mmHg 81%
    02:00 +4°C° 0 mm 2 m/s 765 mmHg 82%
    03:00 +4°C° 0 mm 2 m/s 765 mmHg 83%
    04:00 +4°C° 0 mm 2 m/s 765 mmHg 84%
    05:00 +4°C° 0 mm 2 m/s 765 mmHg 84%
    06:00 +4°C° 0 mm 2 m/s 765 mmHg 85%
    07:00 +5°C° 0 mm 2 m/s 765 mmHg 80%
    08:00 +7°C° 0 mm 2 m/s 766 mmHg 75%
    09:00 +9°C° 0 mm 1 m/s 766 mmHg 70%
    10:00 +11°C° 0 mm 1 m/s 765 mmHg 65%
    11:00 +12°C° 0 mm 1 m/s 765 mmHg 60%
    12:00 +14°C° 0 mm 1 m/s 765 mmHg 55%
    13:00 +14°C° 0 mm 2 m/s 764 mmHg 54%
    14:00 +14°C° 0 mm 2 m/s 764 mmHg 54%
    15:00 +13°C° 0 mm 2 m/s 763 mmHg 54%
    16:00 +12°C° 0 mm 2 m/s 763 mmHg 62%
    17:00 +9°C° 0 mm 2 m/s 764 mmHg 71%
    18:00 +8°C° 0 mm 1 m/s 764 mmHg 79%
    19:00 +8°C° 0 mm 1 m/s 764 mmHg 80%
    20:00 +7°C° 0 mm 1 m/s 764 mmHg 82%
    21:00 +7°C° 0 mm 1 m/s 764 mmHg 84%
    22:00 +7°C° 0 mm 1 m/s 764 mmHg 83%
    23:00 +7°C° 0 mm 1 m/s 763 mmHg 83%

    16 Dezembro, Domingo

    Tempo Temperatura Precipitação Vento Pressão Humidade
    00:00 +7°C° 0 mm 1 m/s 763 mmHg 83%
    01:00 +7°C° 0 mm 1 m/s 763 mmHg 82%
    02:00 +7°C° 0 mm 1 m/s 762 mmHg 80%
    03:00 +6°C° 0 mm 1 m/s 762 mmHg 79%
    04:00 +6°C° 0 mm 1 m/s 762 mmHg 79%
    05:00 +6°C° 0 mm 1 m/s 762 mmHg 78%
    06:00 +6°C° 0 mm 1 m/s 761 mmHg 78%
    07:00 +8°C° 0 mm 1 m/s 761 mmHg 75%
    08:00 +9°C° 0 mm 1 m/s 761 mmHg 73%
    09:00 +10°C° 0 mm 1 m/s 761 mmHg 70%
    10:00 +12°C° 0 mm 1 m/s 761 mmHg 65%
    11:00 +13°C° 0 mm 1 m/s 761 mmHg 60%
    12:00 +15°C° 0 mm 1 m/s 760 mmHg 56%
    13:00 +14°C° 0 mm 2 m/s 760 mmHg 58%
    14:00 +14°C° 0 mm 2 m/s 759 mmHg 59%
    15:00 +13°C° 0 mm 2 m/s 759 mmHg 61%
    16:00 +12°C° 0 mm 2 m/s 759 mmHg 66%
    17:00 +10°C° 0 mm 2 m/s 759 mmHg 71%
    18:00 +9°C° 0 mm 2 m/s 759 mmHg 76%
    19:00 +8°C° 0 mm 2 m/s 759 mmHg 78%
    20:00 +8°C° 0 mm 3 m/s 759 mmHg 80%
    21:00 +7°C° 0 mm 3 m/s 759 mmHg 82%
    22:00 +7°C° 0 mm 3 m/s 759 mmHg 83%
    23:00 +7°C° 0 mm 3 m/s 759 mmHg 84%
    Mostrar mais